• In Deutschland
  • Länderverzeichnis
  • Für 7 Tage
  • Wassertemperatur
  • Satellitenkarten
  • Wetterkarte
  • Widgets
  • user-avatar
    Anmelden

    Stündliche Wetter Kitzbühel

    Heute, 19 November, Sonntag

    Zeit Temperatur Niederschläge Wind Luftdruck Luftfeuchtigkeit
    00:00 -4°C° 0 mm 2 m/S 676 mmHg 88%
    01:00 -3°C° 0 mm 2 m/S 675 mmHg 86%
    02:00 -3°C° 0,1 mm 2 m/S 674 mmHg 86%
    03:00 -3°C° 0,1 mm 2 m/S 674 mmHg 85%
    04:00 -3°C° 0,1 mm 2 m/S 674 mmHg 84%
    05:00 -2°C° 0,9 mm 2 m/S 674 mmHg 88%
    06:00 -2°C° 0,9 mm 2 m/S 673 mmHg 91%
    07:00 -2°C° 0 mm 2 m/S 673 mmHg 94%
    08:00 -2°C° 1 mm 2 m/S 673 mmHg 93%
    09:00 -1°C° 1 mm 2 m/S 673 mmHg 93%
    10:00 +1°C° 1 mm 2 m/S 673 mmHg 92%
    11:00 0°C° 0,8 mm 3 m/S 673 mmHg 92%
    12:00 0°C° 0,8 mm 3 m/S 673 mmHg 91%
    13:00 -1°C° 0 mm 2 m/S 673 mmHg 90%
    14:00 -1°C° 0,7 mm 2 m/S 673 mmHg 91%
    15:00 -2°C° 0,7 mm 2 m/S 674 mmHg 92%
    16:00 -2°C° 0,7 mm 3 m/S 674 mmHg 93%
    17:00 -2°C° 0,4 mm 2 m/S 675 mmHg 94%
    18:00 -3°C° 0,4 mm 2 m/S 675 mmHg 94%
    19:00 -3°C° 0,4 mm 2 m/S 676 mmHg 95%
    20:00 -3°C° 0,5 mm 2 m/S 676 mmHg 94%
    21:00 -4°C° 0,5 mm 3 m/S 676 mmHg 94%
    22:00 -4°C° 0,5 mm 3 m/S 677 mmHg 94%
    23:00 -4°C° 0,4 mm 3 m/S 677 mmHg 94%

    Morgen, 20 November, Montag

    Zeit Temperatur Niederschläge Wind Luftdruck Luftfeuchtigkeit
    00:00 -5°C° 0,4 mm 3 m/S 677 mmHg 94%
    01:00 -5°C° 0,4 mm 3 m/S 677 mmHg 94%
    02:00 -5°C° 0,2 mm 3 m/S 677 mmHg 93%
    03:00 -6°C° 0,2 mm 3 m/S 677 mmHg 93%
    04:00 -7°C° 0,2 mm 3 m/S 677 mmHg 93%
    05:00 -6°C° 0,1 mm 2 m/S 677 mmHg 92%
    06:00 -6°C° 0,1 mm 2 m/S 677 mmHg 91%
    07:00 -7°C° 0,1 mm 2 m/S 677 mmHg 90%
    08:00 -5°C° 0 mm 2 m/S 678 mmHg 87%
    09:00 -3°C° 0 mm 2 m/S 678 mmHg 84%
    10:00 -2°C° 0 mm 2 m/S 678 mmHg 81%
    11:00 +1°C° 0 mm 1 m/S 678 mmHg 81%
    12:00 +2°C° 0 mm 1 m/S 678 mmHg 80%
    13:00 +3°C° 0 mm 1 m/S 678 mmHg 80%
    14:00 +2°C° 0,1 mm 1 m/S 678 mmHg 83%
    15:00 +2°C° 0,1 mm 1 m/S 677 mmHg 85%
    16:00 +1°C° 0,1 mm 1 m/S 677 mmHg 88%
    17:00 +1°C° 0,5 mm 1 m/S 677 mmHg 89%
    18:00 -1°C° 0,5 mm 2 m/S 677 mmHg 90%
    19:00 -1°C° 0,5 mm 2 m/S 677 mmHg 92%
    20:00 +1°C° 0,3 mm 2 m/S 677 mmHg 91%
    21:00 +1°C° 0,3 mm 2 m/S 677 mmHg 91%
    22:00 +1°C° 0,3 mm 2 m/S 677 mmHg 90%
    23:00 +1°C° 0,2 mm 2 m/S 677 mmHg 89%

    übermorgen, 21 November, Dienstag

    Zeit Temperatur Niederschläge Wind Luftdruck Luftfeuchtigkeit
    00:00 +2°C° 0,2 mm 2 m/S 676 mmHg 88%
    01:00 +2°C° 0,2 mm 2 m/S 676 mmHg 86%
    02:00 +2°C° 0,2 mm 2 m/S 676 mmHg 86%
    03:00 +2°C° 0,2 mm 2 m/S 676 mmHg 86%
    04:00 +2°C° 0,2 mm 2 m/S 676 mmHg 86%
    05:00 +2°C° 0,6 mm 2 m/S 676 mmHg 88%
    06:00 +2°C° 0,6 mm 2 m/S 676 mmHg 89%
    07:00 +1°C° 0,6 mm 3 m/S 676 mmHg 91%
    08:00 +2°C° 0,4 mm 3 m/S 676 mmHg 92%
    09:00 +4°C° 0,4 mm 2 m/S 677 mmHg 92%
    10:00 +4°C° 0,4 mm 2 m/S 677 mmHg 93%
    11:00 +4°C° 0,4 mm 2 m/S 677 mmHg 94%
    12:00 +5°C° 0,4 mm 2 m/S 676 mmHg 95%
    13:00 +5°C° 0,4 mm 2 m/S 676 mmHg 95%
    14:00 +5°C° 0,2 mm 2 m/S 676 mmHg 94%
    15:00 +5°C° 0,2 mm 2 m/S 676 mmHg 94%
    16:00 +4°C° 0,2 mm 2 m/S 676 mmHg 93%
    17:00 +4°C° 0,3 mm 2 m/S 676 mmHg 93%
    18:00 +4°C° 0,3 mm 2 m/S 677 mmHg 92%
    19:00 +4°C° 0,3 mm 2 m/S 677 mmHg 92%
    20:00 +4°C° 0,3 mm 2 m/S 677 mmHg 92%
    21:00 +4°C° 0,3 mm 2 m/S 677 mmHg 92%
    22:00 +4°C° 0,3 mm 2 m/S 678 mmHg 92%
    23:00 +4°C° 0 mm 2 m/S 677 mmHg 90%

    22 November, Mittwoch

    Zeit Temperatur Niederschläge Wind Luftdruck Luftfeuchtigkeit
    00:00 +3°C° 0 mm 2 m/S 677 mmHg 89%
    01:00 +4°C° 0 mm 1 m/S 677 mmHg 88%
    02:00 +3°C° 0 mm 1 m/S 677 mmHg 87%
    03:00 +3°C° 0 mm 1 m/S 677 mmHg 86%
    04:00 +3°C° 0 mm 1 m/S 677 mmHg 85%
    05:00 +2°C° 0 mm 2 m/S 677 mmHg 85%
    06:00 +2°C° 0 mm 2 m/S 677 mmHg 84%
    07:00 +2°C° 0 mm 2 m/S 677 mmHg 84%
    08:00 +4°C° 0 mm 1 m/S 677 mmHg 86%
    09:00 +6°C° 0 mm 1 m/S 677 mmHg 87%
    10:00 +7°C° 0 mm 1 m/S 677 mmHg 89%
    11:00 +8°C° 0 mm 1 m/S 677 mmHg 90%
    12:00 +9°C° 0 mm 1 m/S 677 mmHg 91%
    13:00 +10°C° 0 mm 1 m/S 677 mmHg 91%
    14:00 +9°C° 0 mm 1 m/S 677 mmHg 90%
    15:00 +8°C° 0 mm 1 m/S 677 mmHg 89%
    16:00 +7°C° 0 mm 1 m/S 677 mmHg 88%
    17:00 +6°C° 0 mm 1 m/S 677 mmHg 86%
    18:00 +4°C° 0 mm 2 m/S 677 mmHg 85%
    19:00 +3°C° 0 mm 2 m/S 677 mmHg 83%
    20:00 +3°C° 0 mm 2 m/S 677 mmHg 81%
    21:00 +3°C° 0 mm 2 m/S 677 mmHg 80%
    22:00 +3°C° 0 mm 2 m/S 678 mmHg 78%
    23:00 +2°C° 0 mm 2 m/S 678 mmHg 77%

    23 November, Donnerstag

    Zeit Temperatur Niederschläge Wind Luftdruck Luftfeuchtigkeit
    00:00 +2°C° 0 mm 2 m/S 678 mmHg 76%
    01:00 +2°C° 0 mm 2 m/S 678 mmHg 75%
    02:00 +2°C° 0 mm 2 m/S 678 mmHg 74%
    03:00 +2°C° 0 mm 2 m/S 678 mmHg 73%
    04:00 +2°C° 0 mm 2 m/S 678 mmHg 72%
    05:00 +2°C° 0 mm 2 m/S 678 mmHg 72%
    06:00 +2°C° 0 mm 2 m/S 679 mmHg 71%
    07:00 +2°C° 0 mm 2 m/S 679 mmHg 70%
    08:00 +5°C° 0 mm 1 m/S 679 mmHg 72%
    09:00 +6°C° 0 mm 1 m/S 680 mmHg 75%
    10:00 +7°C° 0 mm 1 m/S 680 mmHg 77%
    11:00 +8°C° 0 mm 1 m/S 680 mmHg 79%
    12:00 +9°C° 0 mm 1 m/S 680 mmHg 82%
    13:00 +10°C° 0 mm 1 m/S 680 mmHg 85%
    14:00 +9°C° 0 mm 1 m/S 680 mmHg 82%
    15:00 +8°C° 0 mm 1 m/S 680 mmHg 80%
    16:00 +7°C° 0 mm 1 m/S 680 mmHg 77%
    17:00 +6°C° 0 mm 1 m/S 680 mmHg 76%
    18:00 +5°C° 0 mm 1 m/S 680 mmHg 75%
    19:00 +4°C° 0 mm 1 m/S 680 mmHg 74%
    20:00 +3°C° 0 mm 2 m/S 680 mmHg 73%
    21:00 +2°C° 0 mm 2 m/S 680 mmHg 72%
    22:00 +2°C° 0 mm 2 m/S 681 mmHg 71%
    23:00 +2°C° 0 mm 2 m/S 680 mmHg 71%

    24 November, Freitag

    Zeit Temperatur Niederschläge Wind Luftdruck Luftfeuchtigkeit
    00:00 +2°C° 0 mm 2 m/S 680 mmHg 70%
    01:00 +2°C° 0 mm 2 m/S 680 mmHg 70%
    02:00 +2°C° 0 mm 2 m/S 680 mmHg 69%
    03:00 +1°C° 0 mm 2 m/S 680 mmHg 69%
    04:00 +1°C° 0 mm 2 m/S 679 mmHg 69%
    05:00 +1°C° 0 mm 2 m/S 679 mmHg 69%
    06:00 +1°C° 0 mm 2 m/S 679 mmHg 69%
    07:00 +1°C° 0 mm 2 m/S 679 mmHg 69%
    08:00 +3°C° 0 mm 1 m/S 680 mmHg 70%
    09:00 +5°C° 0 mm 1 m/S 680 mmHg 72%
    10:00 +7°C° 0 mm 1 m/S 680 mmHg 74%
    11:00 +7°C° 0 mm 1 m/S 680 mmHg 76%
    12:00 +8°C° 0 mm 1 m/S 680 mmHg 78%
    13:00 +9°C° 0 mm 1 m/S 679 mmHg 80%
    14:00 +8°C° 0 mm 1 m/S 679 mmHg 80%
    15:00 +7°C° 0 mm 1 m/S 679 mmHg 81%
    16:00 +6°C° 0 mm 1 m/S 679 mmHg 81%
    17:00 +5°C° 0 mm 1 m/S 679 mmHg 80%
    18:00 +4°C° 0 mm 1 m/S 679 mmHg 78%
    19:00 +2°C° 0 mm 2 m/S 679 mmHg 77%
    20:00 +2°C° 0 mm 2 m/S 679 mmHg 75%
    21:00 +2°C° 0 mm 2 m/S 679 mmHg 73%
    22:00 +2°C° 0 mm 2 m/S 679 mmHg 71%
    23:00 +2°C° 0 mm 2 m/S 679 mmHg 70%
    Mehr zeigen